IRIDIUM 90 [-] (27373 NORAD) Tracking and Keplerian Element Data

This shows tracking and keplerian element data for the satellite.

Feedback or suggestion? Click here.




ElementValue
Catalog27373
NameIRIDIUM 90 [-]
Epoch Orbit89307
Epoch Day349.20123348
Epoch Year2018
RAAN99.7002
Inclination86.4177
Eccentricity0.0119501
Argument of Perigee339.7216
Mean Anonmoly19.9337
Mean Motion15.88742152
Decay Rate0.00213929
L11 27373U 02005B 18349.20123348 .00213929 14772-4 40774-3 0 9993
L22 27373 86.4177 99.7002 0119501 339.7216 19.9337 15.88742152893074

Live tracking and technical data element details for IRIDIUM 90 [-] (NORAD 27373). IRIDIUM 90 [-] can be tracked NOW for your location showing map with azimuth and elevation plus other details from your city location.

Track the satellite on the map from your city or location and see movement details for azimuth, elevation, latitude, longitude, range, height, and movement on the map or in text.







IsCatalogInMostPopularTable: catalog: 27373, numindb: 57
Update: records affected: 1



GetName: 27373 IRIDIUM 90 [-]

Hit Count: updated at: Sat, 15 Dec 2018 18:44:53 GMT